owner,sensor,date,latitude,longitude,vertical_datum,mass_concentration_of_oxygen_in_sea_water,qcFlag 
SCCF RECON,ioos:station:SCCF:11:1,2013-03-01T00:00:00Z,26.4679,-82.0631,1.675,-9999.0,1111122 
SCCF RECON,ioos:station:SCCF:11:1,2013-03-01T01:00:00Z,26.4679,-82.0631,1.566,-9999.0,1111122 
SCCF RECON,ioos:station:SCCF:11:1,2013-03-01T02:00:00Z,26.4679,-82.0631,1.494,-9999.0,1111122 
SCCF RECON,ioos:station:SCCF:11:1,2013-03-01T03:00:00Z,26.4679,-82.0631,1.52,-9999.0,1111122 
SCCF RECON,ioos:station:SCCF:11:1,2013-03-01T04:00:00Z,26.4679,-82.0631,1.65,-9999.0,1111122 
SCCF RECON,ioos:station:SCCF:11:1,2013-03-01T05:00:00Z,26.4679,-82.0631,1.819,-9999.0,1111122 
SCCF RECON,ioos:station:SCCF:11:1,2013-03-01T06:00:00Z,26.4679,-82.0631,1.956,-9999.0,1111122 
SCCF RECON,ioos:station:SCCF:11:1,2013-03-01T07:00:00Z,26.4679,-82.0631,2.05,-9999.0,1111122 
SCCF RECON,ioos:station:SCCF:11:1,2013-03-01T08:00:00Z,26.4679,-82.0631,2.115,-9999.0,1111122 
SCCF RECON,ioos:station:SCCF:11:1,2013-03-01T09:00:00Z,26.4679,-82.0631,2.091,-9999.0,1111122 
SCCF RECON,ioos:station:SCCF:11:1,2013-03-01T10:00:00Z,26.4679,-82.0631,1.962,-9999.0,1111122 
SCCF RECON,ioos:station:SCCF:11:1,2013-03-01T11:00:00Z,26.4679,-82.0631,1.82,-9999.0,1111122 
SCCF RECON,ioos:station:SCCF:11:1,2013-03-01T12:00:00Z,26.4679,-82.0631,1.744,-9999.0,1111122 
SCCF RECON,ioos:station:SCCF:11:1,2013-03-01T13:00:00Z,26.4679,-82.0631,1.68,0.28,1111122 
SCCF RECON,ioos:station:SCCF:11:1,2013-03-01T14:00:00Z,26.4679,-82.0631,1.631,-9999.0,1111122 
SCCF RECON,ioos:station:SCCF:11:1,2013-03-01T15:00:00Z,26.4679,-82.0631,1.638,-9999.0,1111122 
SCCF RECON,ioos:station:SCCF:11:1,2013-03-01T16:00:00Z,26.4679,-82.0631,1.738,0.92,1111122 
SCCF RECON,ioos:station:SCCF:11:1,2013-03-01T17:00:00Z,26.4679,-82.0631,1.892,-9999.0,1111122 
SCCF RECON,ioos:station:SCCF:11:1,2013-03-01T18:00:00Z,26.4679,-82.0631,1.999,0.34,1111122 
SCCF RECON,ioos:station:SCCF:11:1,2013-03-01T19:00:00Z,26.4679,-82.0631,2.08,-9999.0,1111122 
SCCF RECON,ioos:station:SCCF:11:1,2013-03-01T20:00:00Z,26.4679,-82.0631,2.119,-9999.0,1111122 
SCCF RECON,ioos:station:SCCF:11:1,2013-03-01T21:00:00Z,26.4679,-82.0631,1.0,-9999.0,1111122 
SCCF RECON,ioos:station:SCCF:11:1,2013-03-01T22:00:00Z,26.4679,-82.0631,1.0,-9999.0,1111122 
SCCF RECON,ioos:station:SCCF:11:1,2013-03-01T23:00:00Z,26.4679,-82.0631,1.0,-9999.0,1111122 
SCCF RECON,ioos:station:SCCF:11:1,2013-03-02T00:00:00Z,26.4679,-82.0631,1.0,-9999.0,1111122 
SCCF RECON,ioos:station:SCCF:11:1,2013-03-02T01:00:00Z,26.4679,-82.0631,1.0,-9999.0,1111122 
SCCF RECON,ioos:station:SCCF:11:1,2013-03-02T02:00:00Z,26.4679,-82.0631,1.0,-9999.0,1111122 
SCCF RECON,ioos:station:SCCF:11:1,2013-03-02T03:00:00Z,26.4679,-82.0631,1.0,-9999.0,1111122 
SCCF RECON,ioos:station:SCCF:11:1,2013-03-02T04:00:00Z,26.4679,-82.0631,1.0,-9999.0,1111122 
SCCF RECON,ioos:station:SCCF:11:1,2013-03-02T05:00:00Z,26.4679,-82.0631,1.0,-9999.0,1111122 
SCCF RECON,ioos:station:SCCF:11:1,2013-03-02T06:00:00Z,26.4679,-82.0631,1.0,-9999.0,1111122 
SCCF RECON,ioos:station:SCCF:11:1,2013-03-02T07:00:00Z,26.4679,-82.0631,1.0,-9999.0,1111122 
SCCF RECON,ioos:station:SCCF:11:1,2013-03-02T08:00:00Z,26.4679,-82.0631,1.0,-9999.0,1111122 
SCCF RECON,ioos:station:SCCF:11:1,2013-03-02T09:00:00Z,26.4679,-82.0631,1.0,-9999.0,1111122 
SCCF RECON,ioos:station:SCCF:11:1,2013-03-02T10:00:00Z,26.4679,-82.0631,1.0,-9999.0,1111122 
SCCF RECON,ioos:station:SCCF:11:1,2013-03-02T11:00:00Z,26.4679,-82.0631,1.0,-9999.0,1111122 
SCCF RECON,ioos:station:SCCF:11:1,2013-03-02T12:00:00Z,26.4679,-82.0631,1.0,-9999.0,1111122 
SCCF RECON,ioos:station:SCCF:11:1,2013-03-02T13:00:00Z,26.4679,-82.0631,1.0,-9999.0,1111122 
SCCF RECON,ioos:station:SCCF:11:1,2013-03-02T14:00:00Z,26.4679,-82.0631,1.0,-9999.0,1111122 
SCCF RECON,ioos:station:SCCF:11:1,2013-03-02T15:00:00Z,26.4679,-82.0631,1.0,-9999.0,1111122 
SCCF RECON,ioos:station:SCCF:11:1,2013-03-02T16:00:00Z,26.4679,-82.0631,1.0,-9999.0,1111122 
SCCF RECON,ioos:station:SCCF:11:1,2013-03-02T17:00:00Z,26.4679,-82.0631,1.0,-9999.0,1111122 
SCCF RECON,ioos:station:SCCF:11:1,2013-03-02T18:00:00Z,26.4679,-82.0631,1.0,-9999.0,1111122 
SCCF RECON,ioos:station:SCCF:11:1,2013-03-02T19:00:00Z,26.4679,-82.0631,1.0,-9999.0,1111122 
SCCF RECON,ioos:station:SCCF:11:1,2013-03-02T20:00:00Z,26.4679,-82.0631,1.0,-9999.0,1111122 
SCCF RECON,ioos:station:SCCF:11:1,2013-03-02T21:00:00Z,26.4679,-82.0631,1.0,-9999.0,1111122 
SCCF RECON,ioos:station:SCCF:11:1,2013-03-02T22:00:00Z,26.4679,-82.0631,1.0,-9999.0,1111122 
SCCF RECON,ioos:station:SCCF:11:1,2013-03-02T23:00:00Z,26.4679,-82.0631,1.0,-9999.0,1111122 
SCCF RECON,ioos:station:SCCF:11:1,2013-03-03T00:00:00Z,26.4679,-82.0631,1.0,-9999.0,1111122 
SCCF RECON,ioos:station:SCCF:11:1,2013-03-03T01:00:00Z,26.4679,-82.0631,1.0,-9999.0,1111122 
SCCF RECON,ioos:station:SCCF:11:1,2013-03-03T02:00:00Z,26.4679,-82.0631,1.0,-9999.0,1111122 
SCCF RECON,ioos:station:SCCF:11:1,2013-03-03T03:00:00Z,26.4679,-82.0631,1.0,-9999.0,1111122 
SCCF RECON,ioos:station:SCCF:11:1,2013-03-03T04:00:00Z,26.4679,-82.0631,1.0,-9999.0,1111122 
SCCF RECON,ioos:station:SCCF:11:1,2013-03-03T05:00:00Z,26.4679,-82.0631,1.0,-9999.0,1111122 
SCCF RECON,ioos:station:SCCF:11:1,2013-03-03T06:00:00Z,26.4679,-82.0631,1.0,-9999.0,1111122 
SCCF RECON,ioos:station:SCCF:11:1,2013-03-03T07:00:00Z,26.4679,-82.0631,1.0,-9999.0,1111122 
SCCF RECON,ioos:station:SCCF:11:1,2013-03-03T08:00:00Z,26.4679,-82.0631,1.0,-9999.0,1111122 
SCCF RECON,ioos:station:SCCF:11:1,2013-03-03T09:00:00Z,26.4679,-82.0631,1.0,-9999.0,1111122 
SCCF RECON,ioos:station:SCCF:11:1,2013-03-03T10:00:00Z,26.4679,-82.0631,1.0,-9999.0,1111122 
SCCF RECON,ioos:station:SCCF:11:1,2013-03-03T11:00:00Z,26.4679,-82.0631,1.0,-9999.0,1111122 
SCCF RECON,ioos:station:SCCF:11:1,2013-03-03T12:00:00Z,26.4679,-82.0631,1.0,-9999.0,1111122 
SCCF RECON,ioos:station:SCCF:11:1,2013-03-03T13:00:00Z,26.4679,-82.0631,1.0,-9999.0,1111122 
SCCF RECON,ioos:station:SCCF:11:1,2013-03-03T14:00:00Z,26.4679,-82.0631,1.0,-9999.0,1111122 
SCCF RECON,ioos:station:SCCF:11:1,2013-03-03T15:00:00Z,26.4679,-82.0631,1.0,-9999.0,1111122 
SCCF RECON,ioos:station:SCCF:11:1,2013-03-03T16:00:00Z,26.4679,-82.0631,1.0,-9999.0,1111122 
SCCF RECON,ioos:station:SCCF:11:1,2013-03-03T17:00:00Z,26.4679,-82.0631,1.0,-9999.0,1111122 
SCCF RECON,ioos:station:SCCF:11:1,2013-03-03T18:00:00Z,26.4679,-82.0631,1.0,-9999.0,1111122 
SCCF RECON,ioos:station:SCCF:11:1,2013-03-03T19:00:00Z,26.4679,-82.0631,1.0,-9999.0,1111122 
SCCF RECON,ioos:station:SCCF:11:1,2013-03-03T20:00:00Z,26.4679,-82.0631,1.0,-9999.0,1111122 
SCCF RECON,ioos:station:SCCF:11:1,2013-03-03T21:00:00Z,26.4679,-82.0631,1.0,-9999.0,1111122 
SCCF RECON,ioos:station:SCCF:11:1,2013-03-03T22:00:00Z,26.4679,-82.0631,1.0,-9999.0,1111122 
SCCF RECON,ioos:station:SCCF:11:1,2013-03-03T23:00:00Z,26.4679,-82.0631,1.0,-9999.0,1111122 
SCCF RECON,ioos:station:SCCF:11:1,2013-03-04T00:00:00Z,26.4679,-82.0631,1.0,-9999.0,1111122 
SCCF RECON,ioos:station:SCCF:11:1,2013-03-04T01:00:00Z,26.4679,-82.0631,1.0,-9999.0,1111122 
SCCF RECON,ioos:station:SCCF:11:1,2013-03-04T02:00:00Z,26.4679,-82.0631,1.0,-9999.0,1111122 
SCCF RECON,ioos:station:SCCF:11:1,2013-03-04T03:00:00Z,26.4679,-82.0631,1.0,-9999.0,1111122 
SCCF RECON,ioos:station:SCCF:11:1,2013-03-04T04:00:00Z,26.4679,-82.0631,1.0,-9999.0,1111122 
SCCF RECON,ioos:station:SCCF:11:1,2013-03-04T05:00:00Z,26.4679,-82.0631,1.0,-9999.0,1111122 
SCCF RECON,ioos:station:SCCF:11:1,2013-03-04T06:00:00Z,26.4679,-82.0631,1.0,-9999.0,1111122 
SCCF RECON,ioos:station:SCCF:11:1,2013-03-04T07:00:00Z,26.4679,-82.0631,1.0,-9999.0,1111122 
SCCF RECON,ioos:station:SCCF:11:1,2013-03-04T08:00:00Z,26.4679,-82.0631,1.0,-9999.0,1111122 
SCCF RECON,ioos:station:SCCF:11:1,2013-03-04T09:00:00Z,26.4679,-82.0631,1.0,-9999.0,1111122 
SCCF RECON,ioos:station:SCCF:11:1,2013-03-04T10:00:00Z,26.4679,-82.0631,1.0,-9999.0,1111122 
SCCF RECON,ioos:station:SCCF:11:1,2013-03-04T11:00:00Z,26.4679,-82.0631,1.0,-9999.0,1111122 
SCCF RECON,ioos:station:SCCF:11:1,2013-03-04T12:00:00Z,26.4679,-82.0631,1.0,-9999.0,1111122 
SCCF RECON,ioos:station:SCCF:11:1,2013-03-04T13:00:00Z,26.4679,-82.0631,1.0,-9999.0,1111122 
SCCF RECON,ioos:station:SCCF:11:1,2013-03-04T14:00:00Z,26.4679,-82.0631,1.0,-9999.0,1111122 
SCCF RECON,ioos:station:SCCF:11:1,2013-03-04T15:00:00Z,26.4679,-82.0631,1.0,-9999.0,1111122 
SCCF RECON,ioos:station:SCCF:11:1,2013-03-04T16:00:00Z,26.4679,-82.0631,1.0,-9999.0,1111122 
SCCF RECON,ioos:station:SCCF:11:1,2013-03-04T17:00:00Z,26.4679,-82.0631,1.0,-9999.0,1111122 
SCCF RECON,ioos:station:SCCF:11:1,2013-03-04T18:00:00Z,26.4679,-82.0631,1.0,-9999.0,1111122 
SCCF RECON,ioos:station:SCCF:11:1,2013-03-04T19:00:00Z,26.4679,-82.0631,1.0,-9999.0,1111122 
SCCF RECON,ioos:station:SCCF:11:1,2013-03-04T20:00:00Z,26.4679,-82.0631,1.0,-9999.0,1111122 
SCCF RECON,ioos:station:SCCF:11:1,2013-03-04T21:00:00Z,26.4679,-82.0631,1.0,-9999.0,1111122 
SCCF RECON,ioos:station:SCCF:11:1,2013-03-04T22:00:00Z,26.4679,-82.0631,1.0,-9999.0,1111122 
SCCF RECON,ioos:station:SCCF:11:1,2013-03-04T23:00:00Z,26.4679,-82.0631,1.0,-9999.0,1111122 
SCCF RECON,ioos:station:SCCF:11:1,2013-03-05T00:00:00Z,26.4679,-82.0631,1.0,-9999.0,1111122 
SCCF RECON,ioos:station:SCCF:11:1,2013-03-05T01:00:00Z,26.4679,-82.0631,1.0,-9999.0,1111122 
SCCF RECON,ioos:station:SCCF:11:1,2013-03-05T02:00:00Z,26.4679,-82.0631,1.0,-9999.0,1111122 
SCCF RECON,ioos:station:SCCF:11:1,2013-03-05T03:00:00Z,26.4679,-82.0631,1.0,-9999.0,1111122 
SCCF RECON,ioos:station:SCCF:11:1,2013-03-05T04:00:00Z,26.4679,-82.0631,1.0,-9999.0,1111122 
SCCF RECON,ioos:station:SCCF:11:1,2013-03-05T05:00:00Z,26.4679,-82.0631,1.0,-9999.0,1111122 
SCCF RECON,ioos:station:SCCF:11:1,2013-03-05T06:00:00Z,26.4679,-82.0631,1.0,-9999.0,1111122 
SCCF RECON,ioos:station:SCCF:11:1,2013-03-05T07:00:00Z,26.4679,-82.0631,1.0,-9999.0,1111122 
SCCF RECON,ioos:station:SCCF:11:1,2013-03-05T08:00:00Z,26.4679,-82.0631,1.0,-9999.0,1111122 
SCCF RECON,ioos:station:SCCF:11:1,2013-03-05T09:00:00Z,26.4679,-82.0631,1.0,-9999.0,1111122 
SCCF RECON,ioos:station:SCCF:11:1,2013-03-05T10:00:00Z,26.4679,-82.0631,1.0,-9999.0,1111122 
SCCF RECON,ioos:station:SCCF:11:1,2013-03-05T11:00:00Z,26.4679,-82.0631,1.0,-9999.0,1111122 
SCCF RECON,ioos:station:SCCF:11:1,2013-03-05T12:00:00Z,26.4679,-82.0631,1.0,-9999.0,1111122 
SCCF RECON,ioos:station:SCCF:11:1,2013-03-05T13:00:00Z,26.4679,-82.0631,1.0,-9999.0,1111122 
SCCF RECON,ioos:station:SCCF:11:1,2013-03-05T14:00:00Z,26.4679,-82.0631,1.0,-9999.0,1111122 
SCCF RECON,ioos:station:SCCF:11:1,2013-03-05T15:00:00Z,26.4679,-82.0631,1.0,-9999.0,1111122 
SCCF RECON,ioos:station:SCCF:11:1,2013-03-05T16:00:00Z,26.4679,-82.0631,1.0,-9999.0,1111122 
SCCF RECON,ioos:station:SCCF:11:1,2013-03-05T17:00:00Z,26.4679,-82.0631,1.0,-9999.0,1111122 
SCCF RECON,ioos:station:SCCF:11:1,2013-03-05T18:00:00Z,26.4679,-82.0631,1.89,8.14,1111122 
SCCF RECON,ioos:station:SCCF:11:1,2013-03-05T19:00:00Z,26.4679,-82.0631,1.927,8.65,1111122 
SCCF RECON,ioos:station:SCCF:11:1,2013-03-05T20:00:00Z,26.4679,-82.0631,2.001,8.35,1111122 
SCCF RECON,ioos:station:SCCF:11:1,2013-03-05T21:00:00Z,26.4679,-82.0631,2.092,8.47,1111122 
SCCF RECON,ioos:station:SCCF:11:1,2013-03-05T22:00:00Z,26.4679,-82.0631,2.13,8.37,1111122 
SCCF RECON,ioos:station:SCCF:11:1,2013-03-05T23:00:00Z,26.4679,-82.0631,2.167,8.22,1111122 
SCCF RECON,ioos:station:SCCF:11:1,2013-03-06T00:00:00Z,26.4679,-82.0631,2.19,8.36,1111122 
SCCF RECON,ioos:station:SCCF:11:1,2013-03-06T01:00:00Z,26.4679,-82.0631,2.14,7.81,1111122 
SCCF RECON,ioos:station:SCCF:11:1,2013-03-06T02:00:00Z,26.4679,-82.0631,2.039,8.59,1111122 
SCCF RECON,ioos:station:SCCF:11:1,2013-03-06T03:00:00Z,26.4679,-82.0631,1.96,8.38,1111122 
SCCF RECON,ioos:station:SCCF:11:1,2013-03-06T04:00:00Z,26.4679,-82.0631,1.83,8.32,1111122 
SCCF RECON,ioos:station:SCCF:11:1,2013-03-06T05:00:00Z,26.4679,-82.0631,1.72,8.26,1111122 
SCCF RECON,ioos:station:SCCF:11:1,2013-03-06T06:00:00Z,26.4679,-82.0631,1.61,8.08,1111122 
SCCF RECON,ioos:station:SCCF:11:1,2013-03-06T07:00:00Z,26.4679,-82.0631,1.501,7.92,1111122 
SCCF RECON,ioos:station:SCCF:11:1,2013-03-06T08:00:00Z,26.4679,-82.0631,1.48,7.76,1111122 
SCCF RECON,ioos:station:SCCF:11:1,2013-03-06T09:00:00Z,26.4679,-82.0631,1.522,7.56,1111122 
SCCF RECON,ioos:station:SCCF:11:1,2013-03-06T10:00:00Z,26.4679,-82.0631,1.62,7.3,1111122 
SCCF RECON,ioos:station:SCCF:11:1,2013-03-06T11:00:00Z,26.4679,-82.0631,1.72,7.36,1111122 
SCCF RECON,ioos:station:SCCF:11:1,2013-03-06T12:00:00Z,26.4679,-82.0631,1.82,7.49,1111122 
SCCF RECON,ioos:station:SCCF:11:1,2013-03-06T13:00:00Z,26.4679,-82.0631,1.929,7.24,1111122 
SCCF RECON,ioos:station:SCCF:11:1,2013-03-06T14:00:00Z,26.4679,-82.0631,2.055,7.47,1111122 
SCCF RECON,ioos:station:SCCF:11:1,2013-03-06T15:00:00Z,26.4679,-82.0631,2.096,7.52,1111122 
SCCF RECON,ioos:station:SCCF:11:1,2013-03-06T16:00:00Z,26.4679,-82.0631,1.918,7.57,1111122 
SCCF RECON,ioos:station:SCCF:11:1,2013-03-06T17:00:00Z,26.4679,-82.0631,1.773,7.69,1111122 
SCCF RECON,ioos:station:SCCF:11:1,2013-03-06T18:00:00Z,26.4679,-82.0631,1.742,7.81,1111122 
SCCF RECON,ioos:station:SCCF:11:1,2013-03-06T19:00:00Z,26.4679,-82.0631,1.746,8.1,1111122 
SCCF RECON,ioos:station:SCCF:11:1,2013-03-06T20:00:00Z,26.4679,-82.0631,1.753,8.33,1111122 
SCCF RECON,ioos:station:SCCF:11:1,2013-03-06T21:00:00Z,26.4679,-82.0631,1.763,8.36,1111122 
SCCF RECON,ioos:station:SCCF:11:1,2013-03-06T22:00:00Z,26.4679,-82.0631,1.807,8.35,1111122 
SCCF RECON,ioos:station:SCCF:11:1,2013-03-06T23:00:00Z,26.4679,-82.0631,1.874,8.23,1111122 
SCCF RECON,ioos:station:SCCF:11:1,2013-03-07T00:00:00Z,26.4679,-82.0631,1.961,8.09,1111122 
SCCF RECON,ioos:station:SCCF:11:1,2013-03-07T01:00:00Z,26.4679,-82.0631,2.005,7.98,1111122 
SCCF RECON,ioos:station:SCCF:11:1,2013-03-07T02:00:00Z,26.4679,-82.0631,1.998,7.95,1111122 
SCCF RECON,ioos:station:SCCF:11:1,2013-03-07T03:00:00Z,26.4679,-82.0631,1.949,7.86,1111122 
SCCF RECON,ioos:station:SCCF:11:1,2013-03-07T04:00:00Z,26.4679,-82.0631,1.867,7.82,1111122 
SCCF RECON,ioos:station:SCCF:11:1,2013-03-07T05:00:00Z,26.4679,-82.0631,1.773,7.62,1111122 
SCCF RECON,ioos:station:SCCF:11:1,2013-03-07T06:00:00Z,26.4679,-82.0631,1.64,7.42,1111122 
SCCF RECON,ioos:station:SCCF:11:1,2013-03-07T07:00:00Z,26.4679,-82.0631,1.5,7.29,1111122 
SCCF RECON,ioos:station:SCCF:11:1,2013-03-07T08:00:00Z,26.4679,-82.0631,1.402,7.15,1111122 
SCCF RECON,ioos:station:SCCF:11:1,2013-03-07T09:00:00Z,26.4679,-82.0631,1.323,7.1,1111122 
SCCF RECON,ioos:station:SCCF:11:1,2013-03-07T10:00:00Z,26.4679,-82.0631,1.303,6.96,1111122 
SCCF RECON,ioos:station:SCCF:11:1,2013-03-07T11:00:00Z,26.4679,-82.0631,1.344,7.23,1111122 
SCCF RECON,ioos:station:SCCF:11:1,2013-03-07T12:00:00Z,26.4679,-82.0631,1.468,7.33,1111122 
SCCF RECON,ioos:station:SCCF:11:1,2013-03-07T13:00:00Z,26.4679,-82.0631,1.613,7.19,1111122 
SCCF RECON,ioos:station:SCCF:11:1,2013-03-07T14:00:00Z,26.4679,-82.0631,1.719,7.44,1111122 
SCCF RECON,ioos:station:SCCF:11:1,2013-03-07T15:00:00Z,26.4679,-82.0631,1.78,7.48,1111122 
SCCF RECON,ioos:station:SCCF:11:1,2013-03-07T16:00:00Z,26.4679,-82.0631,1.82,7.71,1111122 
SCCF RECON,ioos:station:SCCF:11:1,2013-03-07T17:00:00Z,26.4679,-82.0631,1.84,7.67,1111122 
SCCF RECON,ioos:station:SCCF:11:1,2013-03-07T18:00:00Z,26.4679,-82.0631,1.778,7.97,1111122 
SCCF RECON,ioos:station:SCCF:11:1,2013-03-07T19:00:00Z,26.4679,-82.0631,1.702,8.27,1111122 
SCCF RECON,ioos:station:SCCF:11:1,2013-03-07T20:00:00Z,26.4679,-82.0631,1.659,8.5,1111122 
SCCF RECON,ioos:station:SCCF:11:1,2013-03-07T21:00:00Z,26.4679,-82.0631,1.663,8.46,1111122 
SCCF RECON,ioos:station:SCCF:11:1,2013-03-07T22:00:00Z,26.4679,-82.0631,1.744,8.7,1111122 
SCCF RECON,ioos:station:SCCF:11:1,2013-03-07T23:00:00Z,26.4679,-82.0631,1.844,8.22,1111122 
SCCF RECON,ioos:station:SCCF:11:1,2013-03-08T00:00:00Z,26.4679,-82.0631,1.925,8.03,1111122 
SCCF RECON,ioos:station:SCCF:11:1,2013-03-08T01:00:00Z,26.4679,-82.0631,1.982,7.8,1111122 
SCCF RECON,ioos:station:SCCF:11:1,2013-03-08T02:00:00Z,26.4679,-82.0631,2.038,7.82,1111122 
SCCF RECON,ioos:station:SCCF:11:1,2013-03-08T03:00:00Z,26.4679,-82.0631,2.052,7.63,1111122 
SCCF RECON,ioos:station:SCCF:11:1,2013-03-08T04:00:00Z,26.4679,-82.0631,2.01,8.12,1111122 
SCCF RECON,ioos:station:SCCF:11:1,2013-03-08T05:00:00Z,26.4679,-82.0631,1.88,7.9,1111122 
SCCF RECON,ioos:station:SCCF:11:1,2013-03-08T06:00:00Z,26.4679,-82.0631,1.745,7.67,1111122 
SCCF RECON,ioos:station:SCCF:11:1,2013-03-08T07:00:00Z,26.4679,-82.0631,1.614,7.61,1111122 
SCCF RECON,ioos:station:SCCF:11:1,2013-03-08T08:00:00Z,26.4679,-82.0631,1.488,7.54,1111122 
SCCF RECON,ioos:station:SCCF:11:1,2013-03-08T09:00:00Z,26.4679,-82.0631,1.376,7.44,1111122 
SCCF RECON,ioos:station:SCCF:11:1,2013-03-08T10:00:00Z,26.4679,-82.0631,1.3,7.31,1111122 
SCCF RECON,ioos:station:SCCF:11:1,2013-03-08T11:00:00Z,26.4679,-82.0631,1.319,7.19,1111122 
SCCF RECON,ioos:station:SCCF:11:1,2013-03-08T12:00:00Z,26.4679,-82.0631,1.425,7.22,1111122 
SCCF RECON,ioos:station:SCCF:11:1,2013-03-08T13:00:00Z,26.4679,-82.0631,1.586,7.4,1111122 
SCCF RECON,ioos:station:SCCF:11:1,2013-03-08T14:00:00Z,26.4679,-82.0631,1.71,7.43,1111122 
SCCF RECON,ioos:station:SCCF:11:1,2013-03-08T15:00:00Z,26.4679,-82.0631,1.81,7.59,1111122 
SCCF RECON,ioos:station:SCCF:11:1,2013-03-08T16:00:00Z,26.4679,-82.0631,1.886,7.86,1111122 
SCCF RECON,ioos:station:SCCF:11:1,2013-03-08T17:00:00Z,26.4679,-82.0631,1.899,7.84,1111122 
SCCF RECON,ioos:station:SCCF:11:1,2013-03-08T18:00:00Z,26.4679,-82.0631,1.847,8.08,1111122 
SCCF RECON,ioos:station:SCCF:11:1,2013-03-08T19:00:00Z,26.4679,-82.0631,1.738,8.07,1111122 
SCCF RECON,ioos:station:SCCF:11:1,2013-03-08T20:00:00Z,26.4679,-82.0631,1.66,8.36,1111122 
SCCF RECON,ioos:station:SCCF:11:1,2013-03-08T21:00:00Z,26.4679,-82.0631,1.619,8.49,1111122 
SCCF RECON,ioos:station:SCCF:11:1,2013-03-08T22:00:00Z,26.4679,-82.0631,1.63,8.54,1111122 
SCCF RECON,ioos:station:SCCF:11:1,2013-03-08T23:00:00Z,26.4679,-82.0631,1.716,8.73,1111122 
SCCF RECON,ioos:station:SCCF:11:1,2013-03-09T00:00:00Z,26.4679,-82.0631,1.84,8.11,1111122 
SCCF RECON,ioos:station:SCCF:11:1,2013-03-09T01:00:00Z,26.4679,-82.0631,1.959,7.92,1111122 
SCCF RECON,ioos:station:SCCF:11:1,2013-03-09T02:00:00Z,26.4679,-82.0631,2.06,7.82,1111122 
SCCF RECON,ioos:station:SCCF:11:1,2013-03-09T03:00:00Z,26.4679,-82.0631,2.13,7.75,1111122 
SCCF RECON,ioos:station:SCCF:11:1,2013-03-09T04:00:00Z,26.4679,-82.0631,2.17,7.62,1111122 
SCCF RECON,ioos:station:SCCF:11:1,2013-03-09T05:00:00Z,26.4679,-82.0631,2.12,7.55,1111122 
SCCF RECON,ioos:station:SCCF:11:1,2013-03-09T06:00:00Z,26.4679,-82.0631,1.99,7.68,1111122 
SCCF RECON,ioos:station:SCCF:11:1,2013-03-09T07:00:00Z,26.4679,-82.0631,1.84,7.55,1111122 
SCCF RECON,ioos:station:SCCF:11:1,2013-03-09T08:00:00Z,26.4679,-82.0631,1.69,7.47,1111122 
SCCF RECON,ioos:station:SCCF:11:1,2013-03-09T09:00:00Z,26.4679,-82.0631,1.551,7.38,1111122 
SCCF RECON,ioos:station:SCCF:11:1,2013-03-09T10:00:00Z,26.4679,-82.0631,1.43,7.18,1111122 
SCCF RECON,ioos:station:SCCF:11:1,2013-03-09T11:00:00Z,26.4679,-82.0631,1.375,7.06,1111122 
SCCF RECON,ioos:station:SCCF:11:1,2013-03-09T12:00:00Z,26.4679,-82.0631,1.44,7.14,1111122 
SCCF RECON,ioos:station:SCCF:11:1,2013-03-09T13:00:00Z,26.4679,-82.0631,1.63,7.18,1111122 
SCCF RECON,ioos:station:SCCF:11:1,2013-03-09T14:00:00Z,26.4679,-82.0631,1.782,7.34,1111122 
SCCF RECON,ioos:station:SCCF:11:1,2013-03-09T15:00:00Z,26.4679,-82.0631,1.9,7.45,1111122 
SCCF RECON,ioos:station:SCCF:11:1,2013-03-09T16:00:00Z,26.4679,-82.0631,1.99,7.53,1111122 
SCCF RECON,ioos:station:SCCF:11:1,2013-03-09T17:00:00Z,26.4679,-82.0631,2.027,7.65,1111122 
SCCF RECON,ioos:station:SCCF:11:1,2013-03-09T18:00:00Z,26.4679,-82.0631,1.998,7.74,1111122 
SCCF RECON,ioos:station:SCCF:11:1,2013-03-09T19:00:00Z,26.4679,-82.0631,1.89,7.8,1111122 
SCCF RECON,ioos:station:SCCF:11:1,2013-03-09T20:00:00Z,26.4679,-82.0631,1.778,8.07,1111122 
SCCF RECON,ioos:station:SCCF:11:1,2013-03-09T21:00:00Z,26.4679,-82.0631,1.703,8.21,1111122 
SCCF RECON,ioos:station:SCCF:11:1,2013-03-09T22:00:00Z,26.4679,-82.0631,1.64,8.25,1111122 
SCCF RECON,ioos:station:SCCF:11:1,2013-03-09T23:00:00Z,26.4679,-82.0631,1.64,8.34,1111122 
SCCF RECON,ioos:station:SCCF:11:1,2013-03-10T00:00:00Z,26.4679,-82.0631,1.75,8.11,1111122 
SCCF RECON,ioos:station:SCCF:11:1,2013-03-10T01:00:00Z,26.4679,-82.0631,1.914,8.03,1111122 
SCCF RECON,ioos:station:SCCF:11:1,2013-03-10T02:00:00Z,26.4679,-82.0631,2.05,7.87,1111122 
SCCF RECON,ioos:station:SCCF:11:1,2013-03-10T03:00:00Z,26.4679,-82.0631,2.15,7.75,1111122 
SCCF RECON,ioos:station:SCCF:11:1,2013-03-10T04:00:00Z,26.4679,-82.0631,2.208,7.66,1111122 
SCCF RECON,ioos:station:SCCF:11:1,2013-03-10T05:00:00Z,26.4679,-82.0631,2.22,7.54,1111122 
SCCF RECON,ioos:station:SCCF:11:1,2013-03-10T06:00:00Z,26.4679,-82.0631,2.144,7.52,1111122 
SCCF RECON,ioos:station:SCCF:11:1,2013-03-10T07:00:00Z,26.4679,-82.0631,1.982,7.5,1111122 
SCCF RECON,ioos:station:SCCF:11:1,2013-03-10T08:00:00Z,26.4679,-82.0631,1.826,7.32,1111122 
SCCF RECON,ioos:station:SCCF:11:1,2013-03-10T09:00:00Z,26.4679,-82.0631,1.68,7.22,1111122 
SCCF RECON,ioos:station:SCCF:11:1,2013-03-10T10:00:00Z,26.4679,-82.0631,1.55,7.08,1111122 
SCCF RECON,ioos:station:SCCF:11:1,2013-03-10T11:00:00Z,26.4679,-82.0631,1.44,6.82,1111122 
SCCF RECON,ioos:station:SCCF:11:1,2013-03-10T12:00:00Z,26.4679,-82.0631,1.43,6.74,1111122 
SCCF RECON,ioos:station:SCCF:11:1,2013-03-10T13:00:00Z,26.4679,-82.0631,1.589,6.93,1111122 
SCCF RECON,ioos:station:SCCF:11:1,2013-03-10T14:00:00Z,26.4679,-82.0631,1.79,7.2,1111122 
SCCF RECON,ioos:station:SCCF:11:1,2013-03-10T15:00:00Z,26.4679,-82.0631,1.939,7.15,1111122 
SCCF RECON,ioos:station:SCCF:11:1,2013-03-10T16:00:00Z,26.4679,-82.0631,2.039,7.34,1111122 
SCCF RECON,ioos:station:SCCF:11:1,2013-03-10T17:00:00Z,26.4679,-82.0631,2.091,7.57,1111122 
SCCF RECON,ioos:station:SCCF:11:1,2013-03-10T18:00:00Z,26.4679,-82.0631,2.074,7.55,1111122 
SCCF RECON,ioos:station:SCCF:11:1,2013-03-10T19:00:00Z,26.4679,-82.0631,1.993,7.71,1111122 
SCCF RECON,ioos:station:SCCF:11:1,2013-03-10T20:00:00Z,26.4679,-82.0631,1.859,7.9,1111122 
SCCF RECON,ioos:station:SCCF:11:1,2013-03-10T21:00:00Z,26.4679,-82.0631,1.763,8.32,1111122 
SCCF RECON,ioos:station:SCCF:11:1,2013-03-10T22:00:00Z,26.4679,-82.0631,1.697,8.4,1111122 
SCCF RECON,ioos:station:SCCF:11:1,2013-03-10T23:00:00Z,26.4679,-82.0631,1.632,8.35,1111122 
SCCF RECON,ioos:station:SCCF:11:1,2013-03-11T00:00:00Z,26.4679,-82.0631,1.62,8.41,1111122 
SCCF RECON,ioos:station:SCCF:11:1,2013-03-11T01:00:00Z,26.4679,-82.0631,1.74,8.02,1111122 
SCCF RECON,ioos:station:SCCF:11:1,2013-03-11T02:00:00Z,26.4679,-82.0631,1.949,8.02,1111122 
SCCF RECON,ioos:station:SCCF:11:1,2013-03-11T03:00:00Z,26.4679,-82.0631,2.1,7.92,1111122 
SCCF RECON,ioos:station:SCCF:11:1,2013-03-11T04:00:00Z,26.4679,-82.0631,2.201,7.75,1111122 
SCCF RECON,ioos:station:SCCF:11:1,2013-03-11T05:00:00Z,26.4679,-82.0631,2.27,7.58,1111122 
SCCF RECON,ioos:station:SCCF:11:1,2013-03-11T06:00:00Z,26.4679,-82.0631,2.28,7.44,1111122 
SCCF RECON,ioos:station:SCCF:11:1,2013-03-11T07:00:00Z,26.4679,-82.0631,2.16,7.48,1111122 
SCCF RECON,ioos:station:SCCF:11:1,2013-03-11T08:00:00Z,26.4679,-82.0631,1.985,7.36,1111122 
SCCF RECON,ioos:station:SCCF:11:1,2013-03-11T09:00:00Z,26.4679,-82.0631,1.833,7.06,1111122 
SCCF RECON,ioos:station:SCCF:11:1,2013-03-11T10:00:00Z,26.4679,-82.0631,1.709,6.93,1111122 
SCCF RECON,ioos:station:SCCF:11:1,2013-03-11T11:00:00Z,26.4679,-82.0631,1.599,6.77,1111122 
SCCF RECON,ioos:station:SCCF:11:1,2013-03-11T12:00:00Z,26.4679,-82.0631,1.549,6.53,1111122 
SCCF RECON,ioos:station:SCCF:11:1,2013-03-11T13:00:00Z,26.4679,-82.0631,1.63,6.7,1111122 
SCCF RECON,ioos:station:SCCF:11:1,2013-03-11T14:00:00Z,26.4679,-82.0631,1.82,7.03,1111122 
SCCF RECON,ioos:station:SCCF:11:1,2013-03-11T15:00:00Z,26.4679,-82.0631,1.976,7.12,1111122 
SCCF RECON,ioos:station:SCCF:11:1,2013-03-11T16:00:00Z,26.4679,-82.0631,2.073,7.19,1111122 
SCCF RECON,ioos:station:SCCF:11:1,2013-03-11T17:00:00Z,26.4679,-82.0631,2.172,7.3,1111122 
SCCF RECON,ioos:station:SCCF:11:1,2013-03-11T18:00:00Z,26.4679,-82.0631,2.24,7.47,1111122 